GFSSE_sfc_30mbdewp_336.txt.gz
Dewpoint
66 70 72 71 72 71 69 69 71 71 72 72 73 73 72 73 72 71 72 72 72 72 72 72 72 72 71 71 70 70 68 69 72 71 71 71 71 71 69 70 71 69 70
68 72 72 71 71 72 71 69 71 72 72 72 73 72 72 72 72 73 72 72 71 72 72 71 69 70 72 70 71 71 70 70 70 71 71 70 70 70 69 71 70 70 70
70 72 73 72 71 72 69 71 72 73 72 72 73 73 72 72 72 72 72 72 72 72 70 72 72 72 71 70 71 70 70 70 70 71 71 71 71 71 70 70 70 70 71
71 73 73 73 72 71 69 72 73 73 72 73 73 73 73 72 72 72 71 71 72 71 72 71 71 71 70 71 70 70 72 70 69 71 70 71 71 71 71 71 71 71 71
72 73 73 73 72 70 70 72 73 72 73 73 73 73 72 72 72 72 73 71 72 72 72 71 71 71 71 71 70 71 71 71 71 69 68 69 69 69 70 71 70 71 72
72 73 72 72 71 71 72 72 73 73 73 73 73 72 71 71 71 72 71 72 71 72 71 71 71 71 70 71 71 71 71 71 71 71 72 71 71 71 71 71 71 68 71
71 72 72 72 71 72 72 72 73 73 73 73 73 72 72 72 71 72 73 72 72 72 72 72 71 71 71 71 71 71 72 71 71 71 72 71 72 72 71 71 65 65 69
71 72 72 72 72 72 72 72 73 73 73 73 73 72 72 72 72 72 72 72 72 72 72 72 71 71 71 72 71 72 70 70 71 71 71 72 73 72 71 71 68 70 71
73 73 73 72 72 72 71 72 73 73 73 73 73 72 71 71 72 73 73 73 72 72 72 72 72 72 71 71 71 70 71 71 70 71 71 72 72 71 71 72 72 71 71
72 72 72 72 72 71 71 71 73 73 73 73 73 72 73 73 73 72 73 72 72 72 71 72 72 70 70 72 71 72 73 72 72 72 72 73 73 72 72 72 72 72 72
71 72 72 72 71 71 71 71 72 74 73 73 73 73 73 72 73 73 73 72 72 72 72 72 70 69 70 71 72 73 73 71 72 72 72 72 71 72 72 72 72 72 72
70 71 72 72 72 71 71 71 72 72 73 73 73 73 73 73 72 72 73 72 72 72 72 72 71 71 72 72 73 72 70 71 72 72 72 72 73 72 72 72 72 72 72
70 70 71 72 72 71 71 72 72 72 72 72 73 74 72 72 73 73 73 73 73 73 72 73 73 72 69 69 70 70 69 69 71 73 73 72 71 71 72 72 72 72 72
69 69 71 72 71 71 71 72 72 72 72 72 72 73 72 72 72 72 72 72 72 72 71 72 73 72 70 70 70 69 69 69 70 72 73 72 71 72 72 72 71 72 72
67 68 69 70 71 71 71 72 71 71 72 72 72 72 72 71 71 71 71 72 71 71 71 70 71 70 70 70 70 69 69 68 69 71 71 71 71 71 71 71 72 72 72
67 67 67 69 70 71 70 71 71 71 72 71 71 71 72 71 71 71 70 70 70 70 70 70 69 70 69 69 69 69 69 69 68 67 70 71 68 70 70 70 70 71 72
66 67 66 67 68 70 69 71 71 71 71 71 70 71 71 71 70 70 69 69 70 70 70 70 70 70 70 69 69 69 70 69 68 68 67 69 70 68 66 67 68 68 69
66 65 66 66 67 69 69 70 70 70 71 71 71 71 71 71 70 68 67 69 69 70 71 70 69 69 68 67 67 66 68 69 68 68 68 67 70 70 68 68 68 67 67
65 64 65 66 67 68 69 69 70 70 71 71 71 71 70 70 70 69 68 68 69 69 70 70 69 68 67 67 67 68 67 67 69 70 69 67 68 70 70 68 68 67 67
64 64 64 66 66 67 68 68 69 69 70 71 70 70 70 70 69 70 70 69 70 69 69 68 67 68 68 68 69 69 69 68 67 68 69 69 67 68 70 69 69 69 68
63 64 64 65 66 67 66 66 67 67 68 70 70 71 70 70 70 70 70 71 70 69 69 68 66 65 65 69 68 67 67 68 68 67 67 69 70 70 70 70 69 67 66
63 64 65 65 66 67 66 66 66 65 67 69 70 70 71 70 71 70 70 70 70 69 69 69 69 68 68 69 67 66 64 64 65 68 68 68 68 69 70 70 70 68 67
62 64 65 65 65 66 66 65 66 66 68 68 68 69 70 70 70 70 71 70 70 70 69 69 69 68 67 68 68 66 63 60 64 65 67 69 69 69 69 70 70 69 68
61 64 64 65 65 65 66 65 64 63 63 65 66 68 69 70 70 70 70 70 70 69 69 69 70 70 69 67 68 69 67 65 64 64 66 67 69 69 69 69 70 69 69
61 62 64 64 65 66 66 66 64 63 64 66 67 67 68 69 70 70 71 71 70 70 70 69 69 70 70 69 68 68 68 68 67 66 64 65 66 68 69 69 69 70 70
62 62 63 64 64 66 66 66 65 65 65 65 66 67 67 69 69 70 71 71 71 71 70 71 71 70 70 69 69 69 68 67 67 66 65 65 66 67 67 68 69 69 69

GFSSE_sfc_30mbdewp_339.txt.gz
Dewpoint
65 68 72 71 72 70 69 71 71 72 73 73 73 72 72 72 72 72 73 72 73 72 72 72 72 72 71 72 69 68 72 71 70 71 71 71 71 70 71 71 70 69 70
65 68 72 72 72 71 69 70 71 72 73 73 73 73 73 72 72 73 73 72 73 72 72 71 72 71 70 72 70 69 71 72 71 70 70 70 70 71 71 69 68 70 71
65 68 71 72 72 71 70 70 73 72 73 73 73 72 72 72 73 72 72 72 72 71 71 70 72 71 71 70 70 70 71 72 71 71 68 68 69 71 71 69 71 71 70
66 68 69 73 72 70 71 72 73 72 73 72 72 73 72 72 72 71 73 72 71 71 72 72 71 70 71 70 71 71 70 71 72 71 67 67 68 71 71 71 71 71 71
68 68 70 72 72 70 70 73 73 73 73 73 72 72 72 72 71 72 71 72 72 72 71 71 72 71 71 70 71 72 71 70 71 70 68 67 66 71 71 71 72 71 70
69 69 71 72 71 70 71 73 73 73 73 73 72 71 72 72 72 72 71 71 73 72 71 71 71 71 71 71 71 71 71 72 69 64 65 67 67 70 71 71 69 71 71
68 69 71 72 71 72 72 72 72 72 72 73 72 72 72 72 72 72 72 72 72 71 72 71 71 71 71 71 71 72 71 71 69 70 69 69 70 72 72 68 66 71 72
67 69 70 72 71 73 72 72 72 73 73 73 73 72 72 72 72 72 72 72 72 72 71 71 71 71 72 71 71 72 71 70 70 71 70 69 72 71 70 67 66 68 70
69 70 70 71 72 72 72 72 73 73 73 73 72 71 72 72 73 72 72 72 72 72 72 72 72 71 72 71 71 70 70 71 68 69 68 68 72 71 72 70 69 71 71
69 70 71 71 71 71 70 72 73 73 73 73 73 71 72 72 73 73 72 72 72 71 72 72 72 70 72 72 72 73 72 70 69 69 70 69 72 71 71 72 72 72 72
70 70 70 70 71 72 72 70 72 73 73 73 73 73 73 72 73 72 72 72 72 73 72 71 70 70 72 72 72 71 72 68 70 68 68 72 72 72 72 72 72 72 72
67 69 69 70 69 69 68 71 73 73 72 73 73 74 73 73 73 71 72 73 72 72 72 72 71 71 72 70 72 71 70 69 68 69 67 72 72 72 72 72 72 72 72
65 67 69 70 71 69 69 70 70 71 72 73 74 73 73 73 71 70 72 73 74 73 70 73 72 72 70 70 70 70 69 70 70 71 72 73 72 71 71 72 72 72 72
65 67 67 69 71 70 70 70 70 70 70 70 71 73 72 70 71 71 71 73 73 73 71 72 70 70 71 71 70 70 69 68 68 71 71 70 70 72 71 72 72 72 72
63 64 66 69 71 71 71 71 70 70 69 69 71 72 71 71 72 71 70 70 70 71 69 71 71 70 71 71 71 70 69 69 70 70 70 70 71 70 71 71 71 72 72
61 62 64 68 70 69 70 71 70 69 69 69 70 71 73 72 72 72 70 69 70 70 70 71 71 71 72 71 70 70 70 69 69 69 69 70 68 68 70 70 69 71 71
62 63 63 66 68 69 70 70 70 69 67 68 69 71 72 73 73 72 71 69 68 70 70 70 71 71 71 70 70 71 70 70 69 68 67 69 69 68 65 67 68 68 70
63 65 65 63 64 67 68 69 69 69 68 69 69 70 71 72 73 72 70 68 69 71 71 72 72 71 70 70 68 68 67 67 70 69 68 68 68 67 66 66 68 68 67
65 66 67 67 65 67 69 69 70 69 71 69 70 70 71 72 72 72 71 70 71 69 70 70 71 71 70 70 68 67 69 69 69 69 69 68 68 69 68 67 69 68 67
65 66 67 67 67 69 69 70 69 70 70 71 71 71 72 71 72 72 70 71 71 70 70 70 71 71 70 70 68 70 69 70 70 69 69 70 68 69 70 70 68 68 68
64 65 66 67 69 68 68 68 68 68 69 70 70 72 72 72 72 72 70 71 72 71 70 71 70 70 68 68 66 66 67 69 69 69 68 69 68 69 69 70 70 70 70
62 64 66 67 68 69 68 68 68 68 68 69 70 71 72 72 72 72 71 71 71 71 71 71 70 69 69 70 68 67 64 64 65 67 69 69 68 68 69 69 70 70 69
61 64 66 67 68 69 69 69 68 68 69 68 69 70 71 72 72 72 73 72 72 72 70 71 71 70 68 70 70 68 64 62 65 66 67 68 69 69 70 69 69 70 70
61 64 65 67 68 68 69 67 67 66 65 65 66 67 70 72 72 72 72 72 72 70 70 71 71 71 71 68 69 70 69 67 65 62 66 68 68 69 69 70 70 70 71
60 63 65 67 68 68 69 68 68 67 66 66 67 69 70 70 72 71 72 73 72 71 71 72 72 72 71 69 69 69 69 69 69 68 65 65 67 68 70 70 70 70 72
60 62 64 67 68 68 69 69 69 68 67 66 66 66 66 68 69 71 71 72 73 72 72 72 72 72 72 71 71 70 69 67 68 67 66 67 67 67 68 69 70 69 72

GFSSE_sfc_30mbdewp_342.txt.gz
Dewpoint
61 65 71 71 71 70 72 71 72 73 72 73 73 73 72 72 72 72 72 73 72 72 72 72 72 71 71 69 71 71 71 71 71 72 71 71 70 70 70 71 70 65 69
61 66 71 72 71 70 70 71 73 73 73 72 72 72 72 72 72 73 72 73 72 72 72 72 71 71 71 68 70 71 71 71 71 71 72 69 70 71 70 69 69 69 70
62 66 69 72 72 70 70 72 73 72 72 72 72 73 73 72 72 72 73 72 72 69 71 72 71 72 71 71 70 71 72 71 70 70 69 64 68 70 69 71 71 70 70
62 63 67 72 72 70 71 73 72 73 73 72 72 72 72 72 72 72 72 71 71 72 72 71 71 71 71 71 71 71 72 71 71 70 68 63 65 71 70 71 71 71 71
62 63 68 72 72 70 73 73 72 72 72 72 71 72 71 71 72 72 72 72 72 72 72 71 72 71 71 72 72 71 70 72 71 69 63 64 63 70 71 71 71 71 70
63 64 71 72 71 70 72 72 72 72 72 71 72 72 72 72 72 71 72 72 72 71 71 72 72 71 71 71 71 71 71 69 69 64 64 64 64 71 70 70 70 71 71
63 65 68 72 70 70 72 72 71 72 72 72 72 72 72 72 71 72 72 72 71 72 71 71 71 71 71 71 72 71 71 71 66 65 65 67 68 71 72 69 71 71 71
63 65 67 71 72 72 72 71 72 71 71 72 73 72 71 72 72 72 72 72 72 72 71 71 72 71 71 71 72 71 71 68 66 65 65 67 71 71 68 65 70 72 72
64 66 67 67 71 72 72 72 73 72 72 72 72 73 72 73 72 72 72 72 72 72 71 72 71 72 71 72 72 71 70 69 65 66 64 67 72 71 68 69 69 69 69
65 65 66 69 70 67 67 73 73 73 73 73 71 72 72 72 72 71 72 72 72 71 72 72 71 71 72 72 71 72 71 68 65 64 64 67 71 71 71 71 70 71 71
64 64 64 65 67 69 68 71 73 73 73 73 72 72 73 71 70 68 72 72 72 72 71 71 71 70 72 72 71 71 71 67 66 63 62 71 72 71 71 72 72 72 71
62 63 64 65 64 65 64 68 70 69 70 69 70 70 66 71 70 67 70 72 72 72 72 71 70 72 71 68 70 71 68 68 67 64 64 70 71 71 71 71 72 72 71
61 62 65 66 67 64 64 66 66 67 66 68 70 69 69 68 67 66 67 72 70 72 70 70 70 67 67 67 67 68 67 69 70 71 71 72 72 72 71 71 71 71 71
60 62 63 65 67 66 65 65 66 65 66 65 68 70 69 67 67 68 67 68 68 67 67 66 63 67 68 70 70 66 67 66 67 72 67 70 70 71 71 71 71 72 71
57 61 61 65 69 68 69 66 64 62 65 65 67 68 67 66 67 67 67 67 68 68 66 66 67 69 70 71 71 70 68 68 69 70 69 68 69 70 70 71 71 71 71
57 57 60 64 68 67 67 69 65 63 62 66 67 68 70 69 68 66 66 67 67 67 67 68 71 71 69 71 71 71 71 68 70 70 69 69 68 67 69 69 70 71 71
58 57 59 63 65 67 67 68 65 64 61 64 67 70 70 71 71 70 67 67 67 68 69 68 70 72 69 71 70 71 70 70 70 68 68 68 69 66 68 68 69 69 70
60 60 60 61 62 65 65 67 65 64 65 65 66 67 70 72 72 71 68 67 67 68 68 71 71 70 71 70 69 68 67 67 69 70 69 68 66 66 68 66 66 68 68
63 63 63 63 63 64 67 67 68 67 66 67 67 67 69 71 71 71 70 67 70 68 66 66 67 70 69 67 70 69 67 68 70 69 69 67 68 68 68 67 68 68 68
63 65 66 65 66 67 67 69 68 68 68 69 69 68 69 70 71 71 68 69 69 69 70 67 69 69 70 68 67 66 68 69 68 70 69 69 68 68 69 70 69 69 68
62 64 66 67 67 68 67 67 66 66 67 68 68 70 72 72 71 72 70 69 70 69 69 69 68 69 68 68 67 65 64 64 66 67 67 68 69 67 68 68 70 69 70
60 63 66 67 69 70 67 68 67 66 65 66 67 69 72 72 72 72 71 70 71 68 69 70 68 68 66 68 68 66 63 63 63 64 66 68 67 67 67 68 67 68 67
58 62 64 67 68 70 68 69 69 69 69 67 66 67 69 72 72 72 72 73 71 71 67 70 69 69 67 66 70 69 60 61 62 65 65 65 68 67 67 69 68 69 69
57 60 64 67 68 69 70 67 68 65 63 63 64 63 66 70 71 71 72 72 72 71 69 70 70 71 70 65 65 67 69 68 62 58 62 64 66 66 67 69 68 69 70
57 59 63 66 68 68 69 69 68 68 64 65 65 66 67 67 69 69 70 72 72 71 69 71 71 69 69 69 67 66 67 67 68 67 61 61 63 64 64 66 68 70 69
56 59 61 65 69 69 69 70 69 67 67 65 65 65 64 63 65 69 70 71 72 72 72 72 71 72 71 69 68 70 69 68 66 67 66 65 64 65 64 65 67 70 69

GFSSE_sfc_30mbdewp_345.txt.gz
Dewpoint
60 66 71 72 70 72 71 72 73 73 73 73 73 73 72 72 72 72 72 72 71 72 72 72 71 70 70 71 71 71 72 72 72 71 70 70 70 70 69 69 70 67 70
60 65 72 71 70 71 71 72 73 72 73 73 73 72 72 72 72 72 72 72 72 72 72 71 72 69 68 72 72 71 71 71 71 71 71 71 71 71 70 69 68 69 69
61 66 69 72 70 70 72 72 72 72 72 72 72 72 72 72 72 72 72 72 70 72 72 71 72 72 69 71 72 72 72 71 71 71 68 64 67 69 71 71 71 71 71
61 63 66 73 70 71 72 72 72 72 71 71 72 72 72 72 72 72 72 71 72 72 72 72 71 71 72 71 72 72 72 71 70 70 69 64 63 70 71 71 71 71 71
61 64 70 72 70 72 72 72 72 72 72 71 71 72 71 71 72 72 71 72 72 72 71 72 71 72 72 71 70 71 72 71 69 69 69 66 64 71 71 71 71 71 70
67 67 71 72 70 71 72 72 72 72 71 72 72 72 72 72 71 72 73 72 72 72 72 71 71 71 71 72 72 71 70 70 70 64 63 66 67 71 71 70 70 71 71
65 65 68 71 70 72 72 72 71 71 72 72 71 72 73 72 72 72 71 72 72 72 72 71 71 71 71 71 71 71 71 70 69 64 67 68 69 71 70 71 71 71 71
63 64 66 70 71 72 72 71 71 72 72 72 72 72 72 72 72 72 72 71 72 71 72 71 71 71 71 72 72 71 70 71 64 66 68 69 72 72 67 68 72 71 71
63 63 65 67 71 72 72 72 72 72 73 73 72 72 73 72 72 72 72 72 72 71 72 70 72 71 72 73 71 71 70 70 64 63 67 68 71 69 67 65 70 71 71
62 62 66 66 66 67 70 72 72 73 73 71 72 72 72 72 72 72 72 72 71 72 72 71 71 71 72 71 71 72 70 68 62 63 68 69 72 72 70 69 71 71 69
62 61 63 66 67 67 70 71 73 73 73 71 72 72 72 71 69 71 72 72 72 72 72 71 70 71 71 71 70 71 70 70 67 63 68 71 72 71 71 71 71 71 71
59 60 61 64 63 63 63 70 70 68 70 70 68 69 72 68 69 65 70 71 72 72 71 70 70 70 72 70 69 70 69 67 68 68 67 71 71 71 71 71 71 72 72
59 61 61 62 63 62 63 64 66 67 64 69 68 70 69 68 63 66 69 69 70 70 69 67 67 67 67 70 69 66 68 67 69 70 70 71 72 72 71 71 71 71 71
59 60 61 63 64 61 62 63 62 62 62 64 68 69 68 69 65 64 68 69 67 62 62 62 63 67 64 67 68 66 66 69 69 67 64 65 69 70 71 71 71 71 71
58 59 60 63 66 65 65 62 61 62 62 62 65 66 64 66 66 64 65 68 68 68 68 63 68 70 67 69 69 70 69 68 70 68 66 66 66 68 69 70 70 71 71
56 58 60 64 67 66 65 64 61 59 60 63 63 66 69 67 64 63 63 67 68 70 69 67 67 68 70 69 70 71 71 69 70 68 67 67 67 67 69 67 69 69 71
55 57 60 62 65 66 66 67 63 60 59 62 64 70 70 68 67 69 63 65 68 69 66 69 69 70 70 70 70 71 70 68 69 69 67 67 66 68 67 67 68 69 70
56 57 59 59 61 64 63 65 62 63 61 62 64 67 69 70 71 70 70 68 69 70 70 69 68 68 68 68 70 70 67 67 69 71 68 68 67 67 68 68 67 67 69
60 61 61 61 61 64 65 66 66 65 65 64 65 66 70 69 70 71 69 69 67 69 69 70 70 70 69 68 66 69 68 67 69 71 71 70 68 66 68 69 69 69 68
62 63 64 64 64 65 67 68 66 65 66 65 66 67 70 68 69 70 70 68 69 66 67 67 70 68 69 68 67 67 69 69 69 70 71 69 69 68 67 68 68 69 68
61 63 66 65 67 67 66 66 64 63 65 67 68 68 70 70 70 70 70 71 70 69 69 69 69 68 68 68 69 66 64 68 67 69 71 71 69 68 68 68 69 69 67
59 62 65 67 67 69 67 66 64 63 62 64 66 70 70 71 71 70 71 69 70 68 69 70 70 68 65 67 67 63 63 64 64 65 68 66 66 68 68 68 68 69 67
57 61 64 67 69 70 68 68 68 67 67 65 64 65 67 70 71 70 70 70 70 70 66 69 70 69 66 64 67 65 59 60 61 66 65 67 68 67 67 69 68 68 70
55 59 63 66 68 70 70 67 69 65 64 63 64 63 63 68 69 70 70 72 72 70 70 69 71 70 69 67 68 67 64 64 61 58 64 63 66 66 67 68 67 68 71
53 56 61 66 69 70 71 71 67 68 64 64 64 65 66 66 68 69 69 70 71 71 71 70 70 71 70 69 68 67 67 67 68 66 63 61 63 63 63 68 68 68 69
52 55 59 65 69 70 70 71 70 68 67 64 65 64 65 64 65 69 69 70 72 72 72 71 71 72 71 70 69 69 69 67 66 67 66 65 65 65 66 67 69 68 70